Powrót do katalogu

STARLINK-30355

AktywnyŁącznośćVLEO
NORAD 57777·PAYLOAD·🇺🇸 United States

Wystrzelony Sep 4, 2023 z Cape Canaveral Space Force Station

Loading…

Następne Przeloty (najbliższe 24 godziny)

TLE

ŚwieżeSource: CelesTrak SupGP

Epoka: Sep 14, 2026, 21:30 UTC

1 57777C 23134G   26257.89631944  .00019177  00000+0  69464-3 0  2575
2 57777  43.0010 209.4401 0001224 250.0727  59.0034 15.27566558    17

Śledź STARLINK-30355 w czasie rzeczywistym z AllMySat

Download on the App Store